Diboll, TX

2:15 AM CDT on September 29, 2016 (GMT -0500)
Angelina County

Weather History for KLFK - December, 2013

Change the Weather History Date:

Saturday, December 14, 2013

  Actual Average Record
Temperature  
Mean Temperature 46 °F 50 °F  
Max Temperature 54 °F 61 °F 82 °F (1975)
Min Temperature 37 °F 39 °F 19 °F (1985)
Degree Days  
Heating Degree Days 19 15  
Month to date heating degree days 241 195  
Since 1 July heating degree days 597 502  
Cooling Degree Days 0 0  
Month to date cooling degree days 8 4  
Year to date cooling degree days 2849 2587  
Moisture  
Dew Point 44 °F    
Average Humidity 81    
Maximum Humidity 100    
Minimum Humidity 62    
Precipitation  
Precipitation 0.00 in 0.14 in 1.93 in (1992)
Month to date precipitation 1.21 2.09  
Year to date precipitation 41.49 46.60  
Snow  
Snow 0.00 in - - ()
Month to date snowfall T  
Since 1 July snowfall T  
Snow Depth 0.00 in    
Sea Level Pressure  
Sea Level Pressure 30.01 in    
Wind  
Wind Speed 9 mph (WNW)    
Max Wind Speed 17 mph    
Max Gust Speed 25 mph    
Visibility 6 miles    
Events      
T = Trace of Precipitation, MM = Missing Value Source: NWS Daily Summary

Daily Weather History Graph

Daily Weather History Graph

Search for Another Location

Airport or City:

Trip Planner

Search our weather history database for the weather conditions in past years. The results will help you decide how hot, cold, wet, or windy it might be!

Date:

Astronomy

Dec. 14, 2013 Rise Set
Actual Time 7:09 AM CST 5:17 PM CST
Civil Twilight 6:43 AM CST 5:44 PM CST
Nautical Twilight 6:12 AM CST 6:14 PM CST
Astronomical Twilight 5:43 AM CST 6:44 PM CST
Moon 3:34 PM CST (12/14) 4:37 AM CST (12/14)
Length of Visible Light 11h 01m
Length of Day
10h 08m
Waxing Gibbous, 94% of the Moon is Illuminated
Dec 14
Waxing Gibbous
Dec 17
Full
Dec 25
Last Quarter
Jan 1
New
Jan 7
First Quarter

Hourly Weather History & Observations

Time (CST) Temp. Windchill Dew Point Humidity Pressure Visibility Wind Dir Wind Speed Gust Speed Precip Events Conditions
12:04 AM 50.0 °F - 50.0 °F 100% 29.88 in 4.0 mi SSW 3.5 mph - N/A   Overcast
12:15 AM 50.0 °F - 48.2 °F 94% 29.88 in 4.0 mi SW 3.5 mph - N/A   Overcast
12:40 AM 51.8 °F - 48.2 °F 88% 29.87 in 5.0 mi WSW 4.6 mph - N/A   Overcast
12:53 AM 51.1 °F - 50.0 °F 96% 29.87 in 5.0 mi SW 4.6 mph - N/A   Overcast
1:53 AM 53.1 °F - 51.1 °F 93% 29.86 in 5.0 mi SW 5.8 mph - N/A   Overcast
2:14 AM 53.6 °F - 51.8 °F 94% 29.86 in 4.0 mi SW 4.6 mph - N/A   Overcast
2:53 AM 54.0 °F - 52.0 °F 93% 29.85 in 7.0 mi SW 3.5 mph - N/A   Overcast
3:53 AM 53.1 °F - 52.0 °F 96% 29.84 in 4.0 mi SW 4.6 mph - N/A   Overcast
4:28 AM 53.6 °F - 51.8 °F 94% 29.84 in 3.0 mi West 4.6 mph - N/A   Overcast
4:53 AM 52.0 °F - 51.1 °F 97% 29.84 in 3.0 mi West 5.8 mph - N/A   Overcast
5:53 AM 51.1 °F - 50.0 °F 96% 29.86 in 5.0 mi West 9.2 mph - N/A   Overcast
6:53 AM 50.0 °F - 48.9 °F 96% 29.88 in 4.0 mi West 5.8 mph - N/A   Overcast
7:20 AM 50.0 °F - 48.2 °F 94% 29.90 in 2.0 mi West 5.8 mph - N/A   Overcast
7:53 AM 50.0 °F - 48.9 °F 96% 29.92 in 2.0 mi West 5.8 mph - N/A   Overcast
8:19 AM 50.0 °F - 48.2 °F 94% 29.94 in 3.0 mi WNW 8.1 mph - N/A   Overcast
8:53 AM 51.1 °F - 48.9 °F 92% 29.96 in 5.0 mi NW 10.4 mph - 0.01 in   Overcast
9:53 AM 51.1 °F - 46.9 °F 86% 29.99 in 7.0 mi NNW 10.4 mph 19.6 mph N/A   Overcast
10:11 AM 51.8 °F - 46.4 °F 82% 30.00 in 7.0 mi NW 8.1 mph - N/A   Overcast
10:53 AM 51.1 °F - 46.9 °F 86% 30.00 in 6.0 mi NW 9.2 mph - N/A   Overcast
11:53 AM 52.0 °F - 46.9 °F 83% 30.01 in 7.0 mi NW 8.1 mph - N/A   Overcast
12:53 PM 50.0 °F - 45.0 °F 83% 30.02 in 10.0 mi NNW 9.2 mph 16.1 mph N/A   Overcast
1:53 PM 48.9 °F - 43.0 °F 80% 30.04 in 9.0 mi NW 12.7 mph 20.7 mph N/A   Overcast
2:53 PM 46.9 °F - 41.0 °F 80% 30.08 in 9.0 mi NNW 10.4 mph 21.9 mph N/A   Overcast
3:53 PM 48.0 °F - 39.9 °F 74% 30.10 in 10.0 mi NW 6.9 mph 16.1 mph N/A   Overcast
4:53 PM 46.9 °F - 39.0 °F 74% 30.13 in 10.0 mi NNW 11.5 mph 20.7 mph N/A   Overcast
5:53 PM 46.0 °F 41.0 °F 37.0 °F 71% 30.15 in 10.0 mi NNW 10.4 mph - N/A   Overcast
6:53 PM 44.1 °F 39.5 °F 36.0 °F 73% 30.19 in 8.0 mi NW 8.1 mph 17.3 mph N/A   Overcast
7:53 PM 43.0 °F 36.4 °F 34.0 °F 71% 30.22 in 8.0 mi NNW 12.7 mph 24.2 mph N/A   Overcast
8:53 PM 42.1 °F 35.7 °F 30.9 °F 65% 30.24 in 9.0 mi NNW 11.5 mph 20.7 mph N/A   Overcast
9:53 PM 41.0 °F 34.7 °F 30.9 °F 67% 30.26 in 9.0 mi NNW 10.4 mph 19.6 mph N/A   Overcast
10:49 PM 39.2 °F 32.0 °F 30.2 °F 70% 30.28 in 9.0 mi NNW 11.5 mph 17.3 mph N/A   Scattered Clouds
10:53 PM 39.9 °F 32.9 °F 30.9 °F 70% 30.28 in 9.0 mi North 11.5 mph 17.3 mph N/A   Partly Cloudy
11:53 PM 37.0 °F 30.4 °F 28.9 °F 73% 30.28 in 9.0 mi NNW 9.2 mph - N/A   Clear